This is the latest recevied weather packets stored in our database for station/object N8ASV. If no packets are shown the sender has not sent any weather packets the latest 10 day(s).
| Time | Temp. | Humidity | Pressure | Rain* | Wind** | Luminosity | Snow |
|---|---|---|---|---|---|---|---|
| 1778091616 | 14.44° C | 60% | 1011.2 hPa | 0 mm | - | - | - |
| 1778090416 | 15° C | 62% | 1011.3 hPa | 0 mm | - | - | - |
| 1778089816 | 15.56° C | 54% | 1011.4 hPa | 0 mm | - | - | - |
| 1778089216 | 15° C | 57% | 1011.5 hPa | 0 mm | - | - | - |
| 1778086215 | 14.44° C | 62% | 1011.7 hPa | 0 mm | - | - | - |
| 1778085015 | 14.44° C | 67% | 1011.8 hPa | 0 mm | - | - | - |
| 1778082638 | 13.33° C | 64% | 1011.8 hPa | 0 mm | - | - | - |
| 1778082058 | 13.33° C | 64% | 1011.7 hPa | 0 mm | - | - | - |
| 1778079017 | 11.67° C | 71% | 1011 hPa | 0 mm | - | - | - |
| 1778074217 | 8.89° C | 84% | 1010.4 hPa | 0 mm | - | - | - |
| 1778073617 | 8.33° C | 86% | 1010.6 hPa | 0 mm | - | - | - |
| 1778069417 | 7.22° C | 91% | 1009.8 hPa | 0 mm | - | - | - |
| 1778067017 | 6.67° C | 92% | 1008.9 hPa | 0 mm | - | - | - |
| 1778066417 | 6.67° C | 91% | 1008.4 hPa | 0 mm | - | - | - |
| 1778065216 | 6.67° C | 91% | 1008.3 hPa | 0 mm | - | - | - |
| 1778062816 | 6.67° C | 92% | 1008.1 hPa | 0 mm | - | - | - |
| 1778059816 | 6.67° C | 92% | 1007.9 hPa | 0 mm | - | - | - |
| 1778057416 | 6.11° C | 91% | 1006.9 hPa | 0.25 mm | - | - | - |
| 1778055016 | 6.11° C | 90% | 1007.1 hPa | 0.76 mm | - | - | - |
| 1778051438 | 7.78° C | 90% | 1007.1 hPa | 1.78 mm | - | - | - |
| 1778050838 | 8.33° C | 91% | 1006.6 hPa | 1.78 mm | - | - | - |
| 1778040617 | 10° C | 91% | 1005.1 hPa | 3.81 mm | - | - | - |
| 1778040017 | 10.56° C | 91% | 1005.4 hPa | 3.05 mm | - | - | - |
| 1778039417 | 11.11° C | 92% | 1005.2 hPa | 2.54 mm | - | - | - |
| 1778038216 | 11.11° C | 92% | 1004.9 hPa | 2.29 mm | - | - | - |
* Rain latest hour (hover to see other rain measurements)
** Current wind speed in m/s (hover to see current wind gust speed)